Flag for U.S.A. Weather past 2 weeks in Casper, Wyoming, U.S.A.

Now
31 °F

Mostly cloudy.


Feels Like: 19 °F
Forecast: 22 / 30 °F
Wind: 18 mph from Northwest

Location: Natrona County International Airport

Current Time: Dec 22, 2014 at 12:54:14 AM

Latest Report: Dec 21, 2014 at 11:53 PM


Visibility: 10 mi

Pressure: 29.72 "Hg

Humidity: 76%

Dew point: 24 °F

Location of CasperLocation

Historic Weather in Casper — Graph

°F

Casper temperature yesterday

Maximum temperature yesterday: 40 °F (at 2:53 PM)
Minimum temperature yesterday: 31 °F (at 1:53 AM)
Average temperature yesterday: 35 °F

Past Weeks' High & Low Weather Summary

 TemperatureHumidityPressure
High59 °F (Dec 12, 1:53 PM)96% (Dec 15, 1:53 AM)30.35 "Hg (Dec 15, 1:53 AM)
Low7 °F (Dec 16, 6:53 AM)21% (Dec 11, 11:53 AM)29.49 "Hg (Dec 21, 1:53 PM)
Average35 °F63%30.04 "Hg
* Reported Dec 6 10:53 PM — Dec 21 10:53 PM, Casper, Weather by CustomWeather, © 2014

Note: Actual official high and low records may vary slightly from our data, if they occured in-between our weather recording intervals... More about our weather records

Advertising

Casper weather history for previous 24 hours

 ConditionsComfort  
Time TempWeatherWind HumidityBarometerVisibility
10:53 PM
Dec 21
34 °FPassing clouds.24 mph64%29.69 "Hg10 mi
9:53 PM32 °FPassing clouds.14 mph79%29.67 "Hg10 mi
8:53 PM33 °FPassing clouds.14 mph85%29.69 "Hg10 mi
7:53 PM31 °FClear.8 mph89%29.68 "Hg10 mi
6:53 PM32 °FPassing clouds.3 mph88%29.65 "Hg10 mi
5:56 PM33 °FLight snow. Fog.15 mph92%29.63 "Hg3 mi
4:53 PM39 °FPassing clouds.20 mph70%29.52 "Hg10 mi
3:53 PM39 °FMore clouds than sun.17 mph70%29.50 "Hg10 mi
2:53 PM40 °FOvercast.No wind68%29.50 "Hg10 mi
1:53 PM39 °FScattered clouds.14 mph70%29.49 "Hg10 mi
12:53 PM39 °FSunny.16 mph70%29.49 "Hg10 mi
11:53 AM38 °FPartly sunny.12 mph73%29.55 "Hg10 mi
10:53 AM38 °FBroken clouds.16 mph73%29.57 "Hg10 mi
9:53 AM38 °FSunny.16 mph70%29.58 "Hg10 mi
8:53 AM37 °FPassing clouds.20 mph70%29.59 "Hg10 mi
7:53 AM36 °FSunny.30 mph73%29.59 "Hg10 mi
6:53 AM35 °FClear.25 mph72%29.60 "Hg10 mi
5:53 AM35 °FClear.22 mph72%29.64 "Hg10 mi
4:53 AM34 °FClear.21 mph76%29.67 "Hg10 mi
3:53 AM34 °FClear.21 mph73%29.70 "Hg10 mi
2:53 AM33 °FClear.18 mph72%29.74 "Hg10 mi
1:53 AM31 °FClear.18 mph79%29.77 "Hg10 mi
12:53 AM33 °FClear.21 mph75%29.80 "Hg10 mi
Weather by CustomWeather, © 2014

See weather overviewHow to use our weather pages